Regional Weather Roundup
Issued by NWS Northern Indiana

Home | Current Version | Previous Version | Graphics & Text | Print | Product List | Glossary On
Versions: 1 2 3 4 5 6 7 8 9 10 11 12 13 14 15 16 17 18 19 20 21 22 23 24 25 26 27 28 29 30 31 32 33 34 35 36 37 38 39 40 41 42 43 44 45 46 47 48 49 50
000
ASUS43 KIWX 310710
RWRIWX

KIWX WEATHER ROUNDUP
NATIONAL WEATHER SERVICE NORTHERN INDIANA
300 AM EDT FRI JUL 31 2015

NOTE: "FAIR" INDICATES FEW OR NO CLOUDS BELOW 12,000 FEET WITH NO
SIGNIFICANT WEATHER AND/OR OBSTRUCTIONS TO VISIBILITY.

* THESE STATIONS ARE NOT UNDER NWS QUALITY CONTROL. THEY ALSO MAY NOT
  REPORT WEATHER SUCH AS PRECIPITATION OR FOG.

INZ001>027-310800-
NORTHERN INDIANA

CITY           SKY/WX    TMP DP  RH WIND       PRES   REMARKS
GARY*          CLEAR     67  63  88 CALM      30.04R
VALPARAISO     CLEAR     67  61  81 W7        30.04R
MICHIGAN CITY* CLEAR     64  59  82 S5        30.03R
LAPORTE*       CLEAR     68  62  80 W6        30.03S
KNOX*          CLEAR     68  61  77 W8        30.02R
SOUTH BEND     CLEAR     67  60  78 SW6       30.02S
GOSHEN         CLEAR     65  60  84 SW3       30.01S
MONTICELLO*    CLEAR     66  64  94 CALM      30.04S
LOGANSPORT*    CLEAR     63  59  88 SW5       30.05S
ROCHESTER*     CLEAR     68  63  83 SW5       30.04S
WARSAW*        CLEAR     68  59  73 W6        30.02S
ANGOLA*        CLEAR     63  57  82 CALM      30.01S
FORT WAYNE     PTCLDY    66  60  81 SW8       30.03S
HUNTINGTON*    CLEAR     67  62  83 W5        30.03S
PERU/GRISSOM   CLEAR     67  62  84 W8        30.04S
MARION*        CLEAR     62  60  92 CALM      30.05S

$$
INZ028>050-310800-
CENTRAL INDIANA

CITY           SKY/WX    TMP DP  RH WIND       PRES   REMARKS
LAFAYETTE      CLEAR     65  63  93 W3        30.05S
KOKOMO*        CLEAR     68  61  77 W8        30.05S
MUNCIE*        CLEAR     66  61  84 W7        30.05S
INDIANAPOLIS   CLEAR     67  61  81 SW6       30.05

$$
MIZ043>046-050>051-056>058-064>065-071>073-077>080-310800-
SOUTHWEST LOWER MICHIGAN

CITY           SKY/WX    TMP DP  RH WIND       PRES   REMARKS
BATTLE CREEK   CLEAR     66  58  75 SW7       29.99S
BENTON HARBOR  CLEAR     73  62  68 W8        29.99S
COLDWATER*     MOCLDY    65  57  76 SW5       30.00S
HILLSDALE*     CLEAR     69  56  63 W5        30.01S
HOLLAND        CLEAR     71  61  70 W5        29.98F
GRAND RAPIDS   CLEAR     67  59  75 SW7       29.97S
KALAMAZOO      CLEAR     66  58  75 W7        29.99S
STURGIS*       CLEAR     64  59  82 CALM      30.00S
THREE RIVERS*  FAIR      64  58  82 SW3       30.00F

$$
OHZ001>008-015>018-024>025-310800-
NORTHWEST OHIO

CITY           SKY/WX    TMP DP  RH WIND       PRES   REMARKS
WAUSEON*       FAIR      64  61  88 W7        29.99F
DEFIANCE       CLEAR     64  58  80 SW3       30.00F
FINDLAY        CLEAR     66  56  70 SW6       30.00S
TOLEDO EXPRESS CLEAR     68  57  68 SW8       29.98F
TOLEDO METCALF CLEAR     67  58  72 SW5       29.99S
LIMA           CLEAR     66  58  75 SW6       30.03S

$$
AND FOR LAKE MICHIGAN COASTAL AND OPEN LAKE BUOY OBSERVATIONS

STATION/POSITION TEMP    WIND        PRES    VSBY  WAVE
                 AIR SEA DIR/SP/G                  HT/PER
                 (F)     (DEG/KT/KT) (MB)    (MI)  (FT/S)
CALUMET HARBOR    76     280/  4/  7   N/A
MICHIGAN CITY     75     220/ 14/ 15   N/A
BURNS HARBOR      76     240/  9/ 12 1016.9R
SAINT JOSEPH      74     250/  7/ 10 1016.6R
4 MI NW BRIDGMAN  75 74  320/ 12/ 14   N/A           2/ 3
MICHIGAN CITY     76 74  300/ 10/ 12   N/A           2/ 3

$$
&&



USA.gov is the U.S. government's official web portal to all federal, state and local government web resources and services.